Location: München
(48.1351°N, 11.5820°E)
Time: 10:01:28
(UTC+01:00)

ISS - Visible Passes

Search period start: 22 January 2022 00:00
Search period end: 01 February 2022 00:00
Orbit: 413 x 422 km, 51.6° (Epoch: 22 January)

Date Brightness Start Highest point End Pass type
(mag) Time Alt. Az. Time Alt. Az. Time Alt. Az.
22 Jan -3.7 18:15:00 10° SW 18:18:18 68° SSE 18:19:58 26° ENE visible
22 Jan -0.8 19:51:58 10° W 19:52:54 17° WNW 19:52:54 17° WNW visible
23 Jan -3.1 17:27:10 10° SW 17:30:22 45° SSE 17:33:35 10° ENE visible
23 Jan -3.3 19:03:52 10° W 19:06:56 52° NNW 19:06:56 52° NNW visible
24 Jan -3.6 18:15:47 10° WSW 18:19:06 66° NNW 18:20:56 24° ENE visible
24 Jan -0.9 19:52:57 10° WNW 19:53:52 17° WNW 19:53:52 17° WNW visible
25 Jan -3.0 19:04:53 10° WNW 19:07:51 42° NNW 19:07:51 42° NNW visible
26 Jan -3.2 18:16:47 10° W 18:20:02 47° N 18:21:49 22° ENE visible
26 Jan -0.9 19:53:51 10° WNW 19:54:45 17° WNW 19:54:45 17° WNW visible
27 Jan -3.1 19:05:50 10° WNW 19:08:45 44° NNW 19:08:45 44° NNW visible
28 Jan -3.2 18:17:47 10° WNW 18:21:01 43° N 18:22:46 22° ENE visible
28 Jan -1.0 19:54:40 10° WNW 19:55:42 19° WNW 19:55:42 19° WNW visible
29 Jan -3.6 19:06:41 10° WNW 19:09:46 61° NNW 19:09:46 61° NNW visible
30 Jan -3.5 18:18:41 10° WNW 18:21:58 52° NNE 18:23:53 22° E visible
30 Jan -1.1 19:55:31 10° WNW 19:56:49 21° W 19:56:49 21° W visible
31 Jan -3.7 19:07:30 10° WNW 19:10:50 71° SSW 19:11:01 69° S visible
